User: anonymous
Location: Allison's Woods
(35.8809°N, 80.8140°W)
Time: 15:20:53
(UTC-04:00)
Language:

Iridium 39 - Orbit

View from above orbital plane
View from above orbital plane
View from above satellite
View from above satellite

Ground track
Ground track

The orbit data is extracted from the following two-line orbital elements,

1 25042U 97069D   14203.24194851  .00000291  00000-0  96842-4 0  8970
2 25042 086.3994 105.6490 0002285 093.0699 267.0758 14.34217394874240
Epoch (UTC): 22 July 2014 05:48:24
Eccentricity: 0.0002285
inclination: 86.3994°
perigee height: 776 km
apogee height: 779 km
right ascension of ascending node: 105.6490°
argument of perigee: 93.0699°
revolutions per day: 14.34217394
mean anomaly at epoch: 267.0758°
orbit number at epoch: 87424

The dashed part of the orbit path shows where the satellite is in the earth's shadow,  

DLR